| time (UTC) | temp C | wind direction | speed KPH | gust KPH | rain 1hr cm | rain 24hr cm | rain mn cm | humidity % | barometer mb |
| 20260507213032 | 13 | 30 | 4.8 | 9.7 | 0.00 | 0.05 | 0.05 | 82 | 1013.6 |
| 20260507211531 | 13 | 55 | 3.2 | 9.7 | 0.00 | 0.05 | 0.05 | 82 | 1013.6 |
| 20260507210030 | 13 | 44 | 3.2 | 6.4 | 0.00 | 0.05 | 0.05 | 82 | 1013.5 |
| 20260507204529 | 14 | 42 | 3.2 | 4.8 | 0.00 | 0.05 | 0.05 | 83 | 1013.4 |
| 20260507203028 | 14 | 42 | 3.2 | 6.4 | 0.00 | 0.05 | 0.05 | 83 | 1013.3 |
| 20260507201531 | 14 | 42 | 3.2 | 6.4 | 0.00 | 0.05 | 0.05 | 83 | 1013.2 |
| 20260507200024 | 15 | 43 | 1.6 | 4.8 | 0.00 | 0.05 | 0.05 | 84 | 1012.9 |
| 20260507194523 | 15 | 43 | 3.2 | 6.4 | 0.00 | 0.05 | 0.05 | 84 | 1012.8 |
| 20260507193028 | 15 | 44 | 1.6 | 4.8 | 0.00 | 0.05 | 0.05 | 84 | 1012.8 |
| 20260507191519 | 15 | 44 | 3.2 | 4.8 | 0.00 | 0.05 | 0.05 | 83 | 1012.5 |
| 20260507190019 | 16 | 45 | 0.0 | 4.8 | 0.00 | 0.05 | 0.05 | 81 | 1012.3 |
| 20260507184516 | 16 | 45 | 0.0 | 3.2 | 0.00 | 0.05 | 0.05 | 80 | 1012.0 |
| 20260507183028 | 16 | 45 | 0.0 | 1.6 | 0.00 | 0.05 | 0.05 | 80 | 1012.0 |
| 20260507181513 | 16 | 45 | 0.0 | 4.8 | 0.00 | 0.05 | 0.05 | 80 | 1011.8 |
| 20260507180016 | 16 | 32 | 4.8 | 12.9 | 0.00 | 0.05 | 0.05 | 80 | 1011.5 |
| 20260507174512 | 17 | 24 | 8.0 | 16.1 | 0.00 | 0.05 | 0.05 | 79 | 1011.5 |
| 20260507173010 | 17 | 38 | 9.7 | 16.1 | 0.00 | 0.05 | 0.05 | 76 | 1011.4 |
| 20260507171510 | 17 | 41 | 1.6 | 8.0 | 0.00 | 0.05 | 0.05 | 77 | 1011.5 |
| 20260507170008 | 18 | 123 | 3.2 | 11.3 | 0.00 | 0.05 | 0.05 | 75 | 1011.5 |
| 20260507164509 | 18 | 113 | 3.2 | 11.3 | 0.00 | 0.05 | 0.05 | 74 | 1011.4 |
| 20260507163006 | 18 | 98 | 4.8 | 16.1 | 0.03 | 0.05 | 0.05 | 77 | 1011.2 |
| 20260507161507 | 17 | 107 | 6.4 | 16.1 | 0.03 | 0.05 | 0.05 | 81 | 1011.2 |
| 20260507160014 | 17 | 71 | 1.6 | 9.7 | 0.03 | 0.05 | 0.05 | 81 | 1011.5 |
| 20260507154504 | 18 | 344 | 14.5 | 20.9 | 0.03 | 0.15 | 0.05 | 74 | 1011.3 |
| 20260507153002 | 18 | 173 | 3.2 | 8.0 | 0.00 | 0.13 | 0.03 | 68 | 1011.0 |
| 20260507151501 | 19 | 163 | 8.0 | 16.1 | 0.00 | 0.13 | 0.03 | 65 | 1010.7 |
| 20260507144604 | 20 | 159 | 9.7 | 20.9 | 0.00 | 0.13 | 0.03 | 61 | 1010.0 |
| 20260507143110 | 21 | 185 | 14.5 | 22.5 | 0.00 | 0.13 | 0.03 | 56 | 1010.0 |
| 20260507141621 | 22 | 168 | 12.9 | 22.5 | 0.00 | 0.13 | 0.03 | 53 | 1010.0 |
| 20260507140058 | 22 | 198 | 11.3 | 27.4 | 0.00 | 0.13 | 0.03 | 57 | 1009.9 |
| 20260507134605 | 22 | 184 | 11.3 | 20.9 | 0.00 | 0.13 | 0.03 | 54 | 1010.0 |
| 20260507133106 | 22 | 195 | 12.9 | 25.7 | 0.00 | 0.13 | 0.03 | 57 | 1009.9 |
| 20260507131611 | 22 | 189 | 16.1 | 29.0 | 0.00 | 0.13 | 0.03 | 62 | 1010.0 |
| 20260507130057 | 22 | 161 | 17.7 | 27.4 | 0.00 | 0.13 | 0.03 | 62 | 1010.0 |
| 20260507124556 | 22 | 151 | 11.3 | 24.1 | 0.00 | 0.15 | 0.03 | 65 | 1009.9 |
| 20260507123111 | 22 | 116 | 12.9 | 24.1 | 0.00 | 0.15 | 0.03 | 63 | 1010.1 |
| 20260507121552 | 23 | 171 | 9.7 | 22.5 | 0.00 | 0.15 | 0.03 | 54 | 1010.1 |
| 20260507120052 | 23 | 187 | 11.3 | 19.3 | 0.00 | 0.15 | 0.03 | 59 | 1010.1 |
| 20260507114555 | 23 | 173 | 11.3 | 16.1 | 0.00 | 0.15 | 0.03 | 59 | 1010.2 |
| 20260507113047 | 23 | 200 | 9.7 | 24.1 | 0.00 | 0.15 | 0.03 | 65 | 1010.4 |
| 20260507111543 | 22 | 140 | 8.0 | 16.1 | 0.00 | 0.15 | 0.03 | 55 | 1010.5 |
| 20260507110041 | 22 | 200 | 8.0 | 16.1 | 0.00 | 0.15 | 0.03 | 59 | 1010.5 |
| 20260507104541 | 22 | 207 | 4.8 | 11.3 | 0.03 | 0.33 | 0.03 | 60 | 1010.6 |
| 20260507103040 | 22 | 201 | 8.0 | 17.7 | 0.03 | 0.33 | 0.03 | 61 | 1010.9 |
| 20260507101538 | 22 | 217 | 8.0 | 12.9 | 0.03 | 0.33 | 0.03 | 64 | 1010.9 |
| 20260507100045 | 22 | 222 | 1.6 | 14.5 | 0.03 | 0.33 | 0.03 | 64 | 1010.9 |
| 20260507094533 | 21 | 186 | 3.2 | 14.5 | 0.00 | 0.33 | 0.00 | 67 | 1010.8 |
| 20260507093028 | 20 | 176 | 6.4 | 16.1 | 0.00 | 0.33 | 0.00 | 72 | 1010.7 |
| 20260507091533 | 20 | 148 | 4.8 | 14.5 | 0.00 | 0.33 | 0.00 | 69 | 1010.7 |
| 20260507090025 | 20 | 188 | 9.7 | 16.1 | 0.00 | 0.33 | 0.00 | 71 | 1010.7 |
| 20260507084522 | 20 | 176 | 3.2 | 9.7 | 0.00 | 0.36 | 0.00 | 73 | 1010.6 |
| 20260507083021 | 20 | 178 | 6.4 | 16.1 | 0.00 | 0.36 | 0.00 | 73 | 1010.7 |
| 20260507081517 | 20 | 171 | 6.4 | 11.3 | 0.00 | 0.36 | 0.00 | 75 | 1010.5 |
| 20260507080015 | 19 | 178 | 3.2 | 8.0 | 0.00 | 0.36 | 0.00 | 77 | 1010.5 |
| 20260507074511 | 18 | 183 | 3.2 | 8.0 | 0.00 | 0.41 | 0.00 | 83 | 1010.4 |
| 20260507073007 | 17 | 182 | 1.6 | 8.0 | 0.00 | 0.41 | 0.00 | 81 | 1010.4 |
| 20260507071503 | 17 | 182 | 0.0 | 6.4 | 0.00 | 0.41 | 0.00 | 61 | 1010.3 |
| 20260507070105 | 16 | 103 | 4.8 | 11.3 | 0.00 | 0.41 | 0.00 | 58 | 1010.2 |
| 20260507064631 | 15 | 58 | 1.6 | 4.8 | 0.00 | 0.53 | 0.00 | 59 | 1010.2 |
| 20260507063112 | 15 | 66 | 1.6 | 6.4 | 0.00 | 0.53 | 0.00 | 60 | 1010.2 |
| 20260507061554 | 15 | 67 | 1.6 | 6.4 | 0.00 | 0.53 | 0.00 | 60 | 1010.0 |
| 20260507060110 | 14 | 67 | 3.2 | 6.4 | 0.00 | 0.53 | 0.00 | 62 | 1009.9 |
| 20260507054557 | 14 | 67 | 1.6 | 6.4 | 0.00 | 0.61 | 0.00 | 63 | 1009.9 |
| 20260507053053 | 14 | 74 | 1.6 | 6.4 | 0.00 | 0.61 | 0.00 | 63 | 1009.5 |
| 20260507051601 | 14 | 53 | 3.2 | 6.4 | 0.00 | 0.61 | 0.00 | 63 | 1009.4 |
| 20260507050048 | 14 | 52 | 4.8 | 8.0 | 0.00 | 0.61 | 0.00 | 64 | 1009.3 |
| 20260507044543 | 13 | 66 | 1.6 | 6.4 | 0.00 | 0.61 | 0.00 | 65 | 1009.2 |
| 20260507043042 | 13 | 69 | 3.2 | 4.8 | 0.00 | 0.61 | 0.00 | 67 | 1009.0 |
| 20260507041536 | 13 | 69 | 3.2 | 6.4 | 0.00 | 0.61 | 0.00 | 67 | 1008.9 |
| 20260507040033 | 13 | 71 | 3.2 | 4.8 | 0.00 | 0.61 | 0.00 | 68 | 1008.9 |
| 20260507034534 | 13 | 71 | 0.0 | 3.2 | 0.00 | 0.61 | 0.00 | 68 | 1008.8 |
| 20260507033031 | 13 | 71 | 0.0 | 3.2 | 0.00 | 0.61 | 0.00 | 68 | 1008.7 |
| 20260507031533 | 14 | 71 | 0.0 | 4.8 | 0.00 | 0.61 | 0.00 | 68 | 1008.7 |
| 20260507030030 | 14 | 71 | 1.6 | 4.8 | 0.00 | 0.61 | 0.00 | 67 | 1008.7 |
| 20260507024528 | 14 | 71 | 3.2 | 4.8 | 0.00 | 0.61 | 0.00 | 67 | 1008.7 |
| 20260507023025 | 15 | 67 | 3.2 | 6.4 | 0.00 | 0.61 | 0.00 | 66 | 1008.8 |
| 20260507021524 | 15 | 51 | 3.2 | 4.8 | 0.00 | 0.61 | 0.00 | 67 | 1008.7 |
| 20260507020022 | 15 | 49 | 1.6 | 6.4 | 0.00 | 0.61 | 0.00 | 68 | 1008.6 |
| 20260507014521 | 15 | 135 | 1.6 | 4.8 | 0.00 | 0.61 | 0.00 | 68 | 1008.6 |
| 20260507013023 | 15 | 135 | 0.0 | 3.2 | 0.00 | 0.61 | 0.00 | 69 | 1008.7 |
| 20260507011519 | 15 | 135 | 1.6 | 3.2 | 0.00 | 0.61 | 0.00 | 70 | 1008.7 |
| 20260507010021 | 15 | 135 | 0.0 | 3.2 | 0.00 | 0.61 | 0.00 | 71 | 1008.7 |
| 20260507004518 | 15 | 135 | 1.6 | 3.2 | 0.00 | 0.61 | 0.00 | 71 | 1008.7 |
| 20260507003015 | 15 | 135 | 0.0 | 4.8 | 0.00 | 0.61 | 0.00 | 72 | 1008.8 |
| 20260507001516 | 15 | 135 | 0.0 | 4.8 | 0.00 | 0.61 | 0.00 | 73 | 1008.8 |
| 20260507000011 | 15 | 135 | 1.6 | 4.8 | 0.00 | 0.61 | 0.00 | 74 | 1008.9 |
| 20260506234511 | 15 | 135 | 0.0 | 4.8 | 0.00 | 0.61 | 0.00 | 74 | 1008.9 |
| 20260506233012 | 16 | 135 | 1.6 | 4.8 | 0.00 | 0.61 | 0.00 | 75 | 1009.0 |
| 20260506231507 | 16 | 136 | 0.0 | 3.2 | 0.00 | 0.61 | 0.00 | 76 | 1009.1 |
| 20260506230017 | 16 | 136 | 1.6 | 4.8 | 0.00 | 0.61 | 0.00 | 77 | 1009.1 |
| 20260506224505 | 16 | 135 | 3.2 | 6.4 | 0.00 | 0.64 | 0.00 | 78 | 1009.1 |
| 20260506223003 | 15 | 135 | 4.8 | 8.0 | 0.00 | 0.64 | 0.00 | 80 | 1009.0 |
| 20260506221502 | 15 | 161 | 6.4 | 8.0 | 0.00 | 0.64 | 0.00 | 81 | 1009.1 |
| 20260506220133 | 15 | 165 | 4.8 | 8.0 | 0.00 | 0.64 | 0.00 | 83 | 1009.0 |
| 20260506214600 | 15 | 166 | 3.2 | 4.8 | 0.00 | 0.69 | 0.64 | 83 | 1009.0 |